Regional Weather Roundup
Issued by NWS

Home | Current Version | Previous Version | Graphics & Text | Print | Product List | Glossary On
Versions: 1 2 3 4 5 6 7 8 9 10 11 12 13 14 15 16 17 18 19 20 21 22 23 24 25 26 27 28 29 30 31 32 33 34 35 36 37 38 39 40 41 42 43 44 45 46 47 48 49 50
000
ASUS43 KLOT 161110
RWRIL

ILLINOIS REGIONAL WEATHER ROUNDUP
NATIONAL WEATHER SERVICE CHICAGO/ROMEOVILLE IL
600 AM CDT TUE SEP 16 2014

NOTE: "FAIR" INDICATES FEW OR NO CLOUDS BELOW 12,000 FEET WITH NO
SIGNIFICANT WEATHER AND/OR OBSTRUCTIONS TO VISIBILITY.

* THESE STATIONS ARE NOT UNDER NWS QUALITY CONTROL. THEY ALSO MAY NOT
  REPORT WEATHER SUCH AS PRECIPITATION OR FOG.

ILZ001-002-007-009-015-016-024-161200-
NORTHWEST ILLINOIS

CITY           SKY/WX    TMP DP  RH WIND       PRES   REMARKS
MOLINE         CLEAR     41  40  96 CALM      30.23S
STERLING*      CLEAR     39  36  87 W3        30.22S
SAVANNA*       FOG       39  38  96 CALM      30.23R VSB 1/2
$$

ILZ003-004-008-010-011-017-018-161200-
NORTH CENTRAL ILLINOIS

CITY           SKY/WX    TMP DP  RH WIND       PRES   REMARKS
ROCKFORD       CLEAR     42  39  89 CALM      30.23S
FREEPORT*      CLEAR     39  38  96 CALM      30.24R FOG
ROCHELLE*      FOG       36  35  99 CALM      30.22S VSB 3/4
DE KALB*       CLEAR     41  40  96 NW5       30.21S
PERU*          FOG       42  42  98 W3        30.22S VSB 1/4
$$

ILZ005-006-012>014-019>023-161200-
NORTHEAST ILLINOIS

CITY           SKY/WX    TMP DP  RH WIND       PRES   REMARKS
CHICAGO-OHARE  PTCLDY    46  43  89 NW3       30.19S
CHICAGO-MIDWAY PTCLDY    48  46  93 N3        30.19S
AURORA         CLEAR     40  38  93 NW5       30.20S
LANSING*       CLEAR     48  47  95 CALM      30.19S
JOLIET*        CLEAR     42  41  93 CALM      30.21S FOG
WAUKEGAN       CLEAR     44  42  93 NW5       30.19R
DUPAGE AIRPORT CLEAR     41  39  93 N3        30.19S
KANKAKEE*      CLEAR     47  46  97 NW3       30.20S
WHEELING       CLEAR     45  42  89 CALM      30.21R
MORRIS*        CLEAR     42  42 100 NW3       30.20S FOG
ROMEOVILLE*    CLEAR     44  44 100 N3        30.19S FOG
NORTHERLY ISL    N/A     51  46  83 W5          N/A
$$

LMZ740>746-161200-
SOUTHERN LAKE MICHIGAN

STATION/POSITION SKY/WX   TEMP    WIND        PRES    VSBY  WAVE
                          AIR SEA DIR/SP/G                  HT/PER
                          (F)     (DEG/KT/KT) (MB)    (MI)  (FT/S)
SOUTHERN BUOY              58 64  340/ 10/ 12 1021.7R
WAUKEGAN HARBOR            47     320/  8/ 10   N/A
HARRISON CRIB              51     300/  9/ 11   N/A
BURNHAM HARBOR             51     270/  5/  7   N/A
CALUMET HARBOR             49     280/  4/  6 1021.1
MICHIGAN CITY              53      80/  5/  7   N/A
MICHIGAN CITY 6N           56 64  120/  6/ 10   N/A           2/ 4
ST. JOSEPH                 56 67   90/  6/  8   N/A           2/ 4
$$

ILZ025>027-034>036-040-047-049-050-058-095>099-161200-
WEST-CENTRAL ILLINOIS

CITY           SKY/WX    TMP DP  RH WIND       PRES   REMARKS
QUINCY         CLEAR     46  44  93 N3        30.23S
GALESBURG*     FOG       40  40 100 CALM      30.23S VSB 1/4
MACOMB*        PTCLDY    42  42 100 CALM      30.25S FOG
JACKSONVILLE*  CLEAR     50  49  96 N3        30.24R FOG
PITTSFIELD*    CLEAR     51  48  91 CALM      30.24S
$$

ILZ028>032-037-038-041>044-048-051>054-059>061-161200-
CENTRAL ILLINOIS

CITY           SKY/WX    TMP DP  RH WIND       PRES   REMARKS
PONTIAC        FOG       45  45 100 CALM      30.21S VSB 1/4
DECATUR        CLOUDY    54  52  93 N8        30.22R
PEORIA         FOG       49  46  90 CALM      30.23R VSB 1/2
LACON*         FOG       43  42  97 CALM      30.22S VSB 3/4
LINCOLN*       CLEAR     49  47  95 CALM      30.21S FOG
SPRINGFIELD    PTCLDY    51  49  92 N5        30.22S
TAYLORVILLE    CLOUDY    50  50 100 N7        30.22R FOG
$$

ILZ033-039-045-046-055>057-062-063-161200-
EAST-CENTRAL ILLINOIS

CITY           SKY/WX    TMP DP  RH WIND       PRES   REMARKS
CHAMPAIGN      CLOUDY    52  50  93 N8        30.21R
DANVILLE*      CLOUDY    52  51  96 N6        30.17R FOG
RANTOUL*       CLEAR     52  49  90 N6        30.21S FOG
MATTOON        CLOUDY    54  52  93 N6        30.19S FOG
PARIS*         CLOUDY    55  54  98 CALM      30.20R FOG
$$

ILZ079-100>102-161200-
SOUTHWEST ILLINOIS

CITY           SKY/WX    TMP DP  RH WIND       PRES   REMARKS
ALTON          MOCLDY    55  52  92 CALM      30.22R
BELLEVILLE     PTCLDY    55  54  94 NW3       30.20S
CAHOKIA*       CLOUDY    58  54  86 NE8       30.21S
SPARTA*        MOCLDY    55  53  93 N6        30.21S
$$

ILZ064>066-069>071-074>076-080>082-084>086-088>090-092>094-161200-
SOUTH-CENTRAL ILLINOIS

CITY           SKY/WX    TMP DP  RH WIND       PRES   REMARKS
CARBONDALE     CLOUDY    59  53  80 N7        30.19R
CAIRO*         CLOUDY    64  58  81 N7        30.15S
EFFINGHAM*     CLOUDY    56  51  84 N5        30.20S
MARION         CLOUDY    61  55  82 N7        30.18S
MT. VERNON     CLOUDY    57  52  82 N5        30.20R
CENTRALIA*     CLOUDY    56  52  86 N6        30.20S
SALEM*         CLOUDY    58  55  91 N8        30.21R
METROPOLIS*    CLOUDY    62  59  91 N6        30.15R
$$

ILZ067-068-072-073-078-083-087-091-161200-
SOUTHEAST ILLINOIS

CITY           SKY/WX    TMP DP  RH WIND       PRES   REMARKS
LAWRENCEVILLE  CLOUDY    58  55  90 N7        30.18R
FLORA*         CLEAR     56  53  90 N9        30.20R
FAIRFIELD*     CLOUDY   N/A N/A N/A N7        30.19R
HARRISBURG*    CLOUDY    59  56  88 N7        30.18S
ROBINSON*      CLOUDY    58  57  95 N7        30.19S
CARMI*         CLOUDY    60  58  94 N5        30.17R
$$

ABBREVIATIONS USED IN REMARKS
   TC - TEMPERATURE IN CELSIUS
  WCI - WIND CHILL INDEX
   HX - HEAT INDEX
  VSB - VISIBILITY
$$



USA.gov is the U.S. government's official web portal to all federal, state and local government web resources and services.